Погода в Алексеевке

Погода в Алексеевке : погода сейчас, прогноз погоды и архив. Всё, что Вы хотите узнать о погоде в Алексеевке!

Поиск расширенной информации на нашем сайте:

Полезная информация: Уникальное предложение парфюм оптом санкт петербург spb.parfumeram.ru.

Другие новости

Новости СМИ2

Главная страница сайта

Новости сайта

02.10.2013

Напоминаем, что на нашем новом сайте вы можете получить высокодетализированные прогнозы погоды по пунктам России, СНГ и мира (включающие важные для авиации метеовеличины, такие как направление и скорость ветра, видимость, явления погоды, количество и форма облачности, нижняя и верхняя граница облачности), а также ознакомиться с разнообразными материалами по авиационной метеорологии и подборкой полезных ссылок на эту тему.

Сайт Метеоцентр.Азия посвящён разработке технологий оптимизации авиаметеорологического обслуживания, включая проектирование и перспективное создание нескольких автоматизированных авиаметеорологических систем:
- система выпуска высокодетальных прогностических карт явлений погоды для нижнего воздушного пространства по России и ближнему зарубежью;
- система верификации прогнозов TAF (выпускаемых синоптиками официальных АМСГ РФ и ближнего зарубежья) и AUTOTAF (выпускаемых сайтом Метеоцентр.Азия) - выявление ошибок, онлайн-сопоставление с фактической погодой METAR, автоматическое внесение коррективов в прогнозы при резком отклонении фактической погоды от прогноза, подсчёт оправдываемости прогнозов по элементам и в целом;
- система обработки, анализа и отображения авиаметеорологической информации для применения провайдерами метеорологической информации.

Рекомендуем: Skf подшипник 6308 www.vekko-podshipnik.ru.

Погода в Алексеевке - сегодня

Время (UTC), дата Ветер
(°,м/с) 
Видим.   Явления Облачность Т
(°С)
Тd
(°С)
f(%) Тe
(°С)
Pmin
(гПа)
dP
(гПа)
Po
(мм)
O2
(г/м3)
Тmin Tmax R s Состояние
почвы
15 25.02.17 230 (ЮЗ) н/о  дымка  10/10 200 м 
[St]
-3.3 -5.3 86 -4  1021  0.7  730  298    -1.7       
18 25.02.17 250 (З) н/о    10/10 200 м 
[St]
-1.6 -4.3 82 -5  1021.7  730  296    -1.7       
21 25.02.17 230 (ЮЗ) н/о    10/10 200 м 
[St]
-3.3 -5.7 83 -7  1022.9  0.8  731  299           
00 26.02.17 230 (ЮЗ) н/о    10/10 200 м 
[St]
-4.7 -7.4 81 -9  1023.7  0.5  731  301           
03 26.02.17 220 (ЮЗ) 20000 м    10/0 средняя 
[As op]
-5.2 -7.3 85 -10  1024.3  0.5  732  301        19  равномерный
сухой снег
100% 
06 26.02.17 230 (ЮЗ) 20000 м  {ливн. осадки}  10/10 300 м 
[St]
-2.3 -5.1 81 -7  1023.7  732  298  -5.2         
09 26.02.17 220 (ЮЗ) 4000 м  ледяной дождь (гололёд){ливн. осадки, снег}  10/10 300 м 
[Ns]
-0.9 -3.1 85 -5  1023.6  0.1  732  296           
12 26.02.17 230 (ЮЗ) 4000 м  слаб. крупа{ливн. осадки, снег}  10/10 600 м кучево-дожд. 
[Cb cap]
-0.8 -3 85 -5  1024.9  1.3  733  296           
15 26.02.17 220 (ЮЗ) н/о  {ливн. осадки}  10/8 600 м средняя 
[Sc|Ac lent]
-1.3 -3.9 82 -5  1024.6  -0.4  733  297    -0.8     
18 26.02.17 220 (ЮЗ) н/о  {ливн. осадки}  10/10 600 м 
[Sc]
-2.5 -4.7 85 -6  1024.2  -0.6  732  298    -0.8     
21 26.02.17 220 (ЮЗ) 9-16{17}  н/о    10/10 600 м 
[Sc]
-2.6 -4.8 85 -8  1023  -1.2  731  298           
00 27.02.17 200 (Ю) 6{15}  н/о    8/8 600 м 
[Sc]
-4.3 -7.7 77 -9  1021.3  -1.9  730  299           
03 27.02.17 210 (ЮЗ) 20000 м    8/1 300 м средняя, верхняя 
[St|Ac cast|Ci fib]
-4.8 -7.9 79 -10  1019.4  -1.9  728  299        19  равномерный
мокрый или
старый снег
100% 
06 27.02.17 200 (Ю) 11-18{17}  20000 м    3/1 300 м средняя 
[St|Ac lent]
-2.9 -7 73 -9  1018.1  -0.9  728  297  -4.8         
09 27.02.17 230 (ЮЗ) 11-19{23}  4000 м  снежные зёрна  10/10 300 м 
[St]
-2.5 -5 83 -8  1018.6  0.6  728  297           
12 27.02.17 250 (З) 6{20}  20000 м  {снег}  9/6 600 м верхняя 
[Sc|Ci fib]
-2.5 -5.7 79 -6  1022.7  3.9  731  298           
15 27.02.17 250 (З) н/о    3/0 верхняя 
[Ci fib]
-5 -7.8 81 -5  1026.4  733  302    -1.8  0.0     
18 27.02.17 260 (З) н/о    8/8 300 м 
[St]
-5.8 -8 84 -8  1028.2  1.6  734  303    -1.8  0.0     
21 27.02.17 тихо ()   н/о    10/0 средняя 
[Ac und]
-8 -9.8 87 -8  1029.2  0.6  735  306           
00 28.02.17 тихо ()   н/о    6/0 средняя 
[Ac trans]
-10.6 -12.8 84 -11  1030.3  0.5  735  309           
03 28.02.17 тихо ()   20000 м    8/0 средняя, верхняя 
[Ac cast|Ci]
-13.6 -16 82 -14  1031.1  0.2  735  313        19  равномерный
сухой снег
100% 
06 28.02.17 тихо ()   20000 м    10/0 средняя 
[Ac und]
-6.8 -10.5 75 -7  1029.5  -0.2  735  305  -13.7         
09 28.02.17 тихо ()   20000 м    10/0 верхняя 
[Ci sp]
-2.9 -8.2 67 -3  1027.8  -1  735  300           
12 28.02.17 тихо ()   20000 м    9/0 верхняя 
[Ci sp]
-3.9 -9.6 65 -4  1027.7  -0.2  734  301           
15 28.02.17 тихо ()   н/о    10/0 средняя, верхняя 
[Ac As|Ci sp]
-7.4 -10.4 79 -7  1027.8  -0.6  734  305    -2.2       
Время (UTC), дата Ветер
(°,м/с) 
Видим.   Явления Облачность Т
(°С)
Тd
(°С)
f(%) Тe
(°С)
Pmin
(гПа)
dP
(гПа)
Po
(мм)
O2
(г/м3)
Тmin Tmax R s Состояние
почвы

Для получения пояснительной информации подведите курсор к названию столбца.

ПОГОДА в Алексеевке - архив

Всё, что Вы хотите узнать о погоде в Алексеевке - удобно и подробно!

Выберите нужную дату (начиная с 1 января 2015* года) и нажмите кнопку "Найти".
Будут отображены архивные сводки погоды по пункту Алексеевка, начиная с указанной даты.


Отображать данные в формате CSV (для использования в таблицах Excel)


Внимание! Наш архив погоды предназначен исключительно для личного некоммерческого использования в познавательных целях. Если Вам необходимы официальные справки о состоянии погоды (для производственных, юридических, коммерческих и т.п. целей), обращайтесь в органы Росгидромета.

*Примечание: данная дата относится к архиву по метеостанциям СССР (Россия, СНГ, Балтия).
Архив по метеостанциям Зарубежной Европы и Азии (кроме Китая) хранится 10 дней, по другим регионам земного шара (Китай, Африка, Америка, Австралия, Океания) - 1 день.

Алексеевка - район местоположения метеостанции


Название, широта, долгота, высота метеостанции:
Алексеевка 52°ш. 70.9°д. 384 м над ур. моря [Казахстан]

Дополнительная информация

В oтличие oт бoльшинства пoгoдных сайтoв мы публикуем пoдрoбную метеoинфoрмацию в детальнoм прoфессиoнальнoм фoрмате.

Характеристики температуры и влажнoсти вoздуха измеряются на высoте 2 м в тени вдали oт зданий и деревьев.
Скoрoсть ветра измеряется на высoте 10 м (на урoвне рoста челoвека скoрoсть ветра ниже в 1.5-2 раза). Если метеoстанция нахoдится в гoрoде или в лесу, тo скoрoсть ветра занижена на 2-4 м/с пo сравнению с oткрытым местoм. Скoрoсть ветра над акватoриями крупных рек и oзёр, а также на вершинах хoлмoв на 2-5 м/с выше, чем в oбычных услoвиях.
Атмoсфернoе давление в разных тoчках местнoсти мoжет значительнo oтличаться oт давления на метеoстанции, в зависимoсти oт услoвий рельефа (при пoдъёме на 10 м давление пoнижается примернo на 1 мм рт.ст.).